| time (UTC) | temp F | wind direction | speed MPH | gust MPH | rain 1hr in | rain 24hr in | rain mn in | humidity % | barometer mb |
| 20260906124056 | 66 | 139 | 1.0 | 2.0 | 0.00 | 0.00 | 0.00 | 97 | 1019.5 |
| 20260906123556 | 66 | 193 | 1.0 | 2.0 | 0.00 | 0.00 | 0.00 | 97 | 1019.5 |
| 20260906123056 | 65 | 199 | 1.0 | 2.0 | 0.00 | 0.00 | 0.00 | 98 | 1019.4 |
| 20260906122556 | 65 | 257 | 0.0 | 2.0 | 0.00 | 0.00 | 0.00 | 98 | 1019.5 |
| 20260906122057 | 65 | 255 | 1.0 | 2.0 | 0.00 | 0.00 | 0.00 | 99 | 1019.4 |
| 20260906121557 | 64 | 270 | 1.0 | 2.0 | 0.00 | 0.00 | 0.00 | 99 | 1019.4 |
| 20260906121057 | 64 | 163 | 1.0 | 2.0 | 0.00 | 0.00 | 0.00 | 99 | 1019.4 |
| 20260906120818 | 64 | 356 | 0.0 | 2.0 | 0.00 | 0.00 | 0.00 | 99 | 1019.3 |
| 20260906120057 | 64 | 356 | 1.0 | 2.0 | 0.00 | 0.00 | 0.00 | 99 | 1019.2 |
| 20260906115542 | 64 | 187 | 1.0 | 2.0 | 0.00 | 0.00 | 0.00 | 99 | 1019.0 |
| 20260906115044 | 64 | 170 | 1.0 | 2.0 | 0.00 | 0.00 | 0.00 | 99 | 1019.1 |
| 20260906114543 | 64 | 257 | 1.0 | 2.0 | 0.00 | 0.00 | 0.00 | 99 | 1019.0 |
| 20260906114044 | 64 | 193 | 1.0 | 2.0 | 0.00 | 0.00 | 0.00 | 99 | 1019.1 |
| 20260906113543 | 64 | 177 | 1.0 | 2.0 | 0.00 | 0.00 | 0.00 | 98 | 1018.9 |
| 20260906113043 | 64 | 125 | 1.0 | 2.0 | 0.00 | 0.00 | 0.00 | 98 | 1018.8 |
| 20260906112544 | 64 | 265 | 1.0 | 2.0 | 0.00 | 0.00 | 0.00 | 98 | 1018.8 |
| 20260906112043 | 64 | 201 | 1.0 | 2.0 | 0.00 | 0.00 | 0.00 | 98 | 1018.7 |
| 20260906111543 | 64 | 356 | 0.0 | 1.0 | 0.00 | 0.00 | 0.00 | 98 | 1018.7 |
| 20260906111044 | 64 | 356 | 1.0 | 2.0 | 0.00 | 0.00 | 0.00 | 98 | 1018.7 |
| 20260906110804 | 65 | 356 | 1.0 | 2.0 | 0.00 | 0.00 | 0.00 | 97 | 1018.6 |
| 20260906110044 | 65 | 193 | 1.0 | 1.0 | 0.00 | 0.00 | 0.00 | 97 | 1018.6 |
| 20260906105546 | 65 | 314 | 1.0 | 2.0 | 0.00 | 0.00 | 0.00 | 97 | 1018.6 |
| 20260906105029 | 65 | 70 | 1.0 | 2.0 | 0.00 | 0.00 | 0.00 | 98 | 1018.5 |
| 20260906104753 | 65 | 125 | 1.0 | 2.0 | 0.00 | 0.00 | 0.00 | 98 | 1018.6 |
| 20260906104029 | 65 | 206 | 0.0 | 2.0 | 0.00 | 0.00 | 0.00 | 98 | 1018.6 |
| 20260906103528 | 65 | 320 | 1.0 | 3.0 | 0.00 | 0.00 | 0.00 | 98 | 1018.7 |
| 20260906103029 | 65 | 356 | 1.0 | 3.0 | 0.00 | 0.00 | 0.00 | 98 | 1018.7 |
| 20260906102529 | 65 | 323 | 1.0 | 2.0 | 0.00 | 0.00 | 0.00 | 98 | 1018.7 |
| 20260906102029 | 65 | 228 | 1.0 | 2.0 | 0.00 | 0.00 | 0.00 | 98 | 1018.6 |
| 20260906101530 | 65 | 179 | 1.0 | 2.0 | 0.00 | 0.00 | 0.00 | 98 | 1018.5 |
| 20260906101254 | 64 | 356 | 1.0 | 2.0 | 0.00 | 0.00 | 0.00 | 98 | 1018.5 |
| 20260906100734 | 64 | 224 | 1.0 | 4.0 | 0.00 | 0.00 | 0.00 | 98 | 1018.5 |
| 20260906100015 | 64 | 326 | 1.0 | 4.0 | 0.00 | 0.00 | 0.00 | 98 | 1018.5 |
| 20260906095515 | 64 | 320 | 2.0 | 5.0 | 0.00 | 0.00 | 0.00 | 98 | 1018.5 |
| 20260906095015 | 64 | 250 | 2.0 | 5.0 | 0.00 | 0.00 | 0.00 | 98 | 1018.6 |
| 20260906094513 | 64 | 203 | 1.0 | 4.0 | 0.00 | 0.00 | 0.00 | 98 | 1018.4 |
| 20260906094014 | 64 | 187 | 1.0 | 2.0 | 0.00 | 0.00 | 0.00 | 98 | 1018.4 |
| 20260906093514 | 64 | 0 | 1.0 | 2.0 | 0.00 | 0.00 | 0.00 | 98 | 1018.4 |
| 20260906093014 | 64 | 167 | 1.0 | 2.0 | 0.00 | 0.00 | 0.00 | 98 | 1018.2 |
| 20260906092514 | 64 | 356 | 0.0 | 2.0 | 0.00 | 0.00 | 0.00 | 97 | 1018.2 |
| 20260906092014 | 64 | 356 | 0.0 | 1.0 | 0.00 | 0.00 | 0.00 | 97 | 1018.2 |
| 20260906091737 | 64 | 199 | 0.0 | 2.0 | 0.00 | 0.00 | 0.00 | 97 | 1018.2 |
| 20260906091015 | 64 | 356 | 1.0 | 2.0 | 0.00 | 0.00 | 0.00 | 97 | 1018.2 |
| 20260906090514 | 64 | 141 | 2.0 | 2.0 | 0.00 | 0.00 | 0.00 | 97 | 1018.2 |
| 20260906090014 | 64 | 156 | 2.0 | 2.0 | 0.00 | 0.00 | 0.00 | 97 | 1018.3 |
| 20260906085515 | 65 | 180 | 1.0 | 2.0 | 0.00 | 0.00 | 0.00 | 96 | 1018.3 |
| 20260906085014 | 65 | 205 | 2.0 | 2.0 | 0.00 | 0.00 | 0.00 | 96 | 1018.4 |
| 20260906084501 | 65 | 185 | 1.0 | 2.0 | 0.00 | 0.00 | 0.00 | 96 | 1018.3 |
| 20260906084002 | 65 | 196 | 1.0 | 2.0 | 0.00 | 0.00 | 0.00 | 95 | 1018.3 |
| 20260906083719 | 65 | 210 | 1.0 | 2.0 | 0.00 | 0.00 | 0.00 | 95 | 1018.3 |
| 20260906083003 | 65 | 217 | 1.0 | 2.0 | 0.00 | 0.00 | 0.00 | 95 | 1018.2 |
| 20260906082501 | 66 | 89 | 1.0 | 2.0 | 0.00 | 0.00 | 0.00 | 95 | 1018.2 |
| 20260906082002 | 66 | 126 | 1.0 | 2.0 | 0.00 | 0.00 | 0.00 | 95 | 1018.1 |
| 20260906081501 | 66 | 2 | 1.0 | 2.0 | 0.00 | 0.00 | 0.00 | 95 | 1018.2 |
| 20260906081001 | 66 | 275 | 1.0 | 4.0 | 0.00 | 0.00 | 0.00 | 95 | 1018.2 |
| 20260906080450 | 66 | 208 | 2.0 | 4.0 | 0.00 | 0.00 | 0.00 | 95 | 1018.1 |
| 20260906075950 | 66 | 303 | 2.0 | 3.0 | 0.00 | 0.00 | 0.00 | 95 | 1018.2 |
| 20260906075710 | 66 | 312 | 1.0 | 3.0 | 0.00 | 0.00 | 0.00 | 95 | 1018.2 |
| 20260906074951 | 66 | 223 | 1.0 | 3.0 | 0.00 | 0.00 | 0.00 | 96 | 1018.2 |
| 20260906074716 | 66 | 356 | 1.0 | 3.0 | 0.00 | 0.00 | 0.00 | 96 | 1018.1 |
| 20260906073945 | 66 | 316 | 1.0 | 3.0 | 0.00 | 0.00 | 0.00 | 96 | 1018.0 |
| 20260906073440 | 65 | 220 | 1.0 | 3.0 | 0.00 | 0.00 | 0.00 | 96 | 1018.0 |
| 20260906072941 | 65 | 235 | 1.0 | 3.0 | 0.00 | 0.00 | 0.00 | 96 | 1018.0 |
| 20260906072441 | 65 | 296 | 1.0 | 3.0 | 0.00 | 0.00 | 0.00 | 96 | 1017.9 |
| 20260906071940 | 65 | 237 | 1.0 | 3.0 | 0.00 | 0.00 | 0.00 | 96 | 1017.9 |
| 20260906071443 | 65 | 189 | 1.0 | 2.0 | 0.00 | 0.00 | 0.00 | 96 | 1017.9 |
| 20260906070942 | 65 | 221 | 1.0 | 3.0 | 0.00 | 0.00 | 0.00 | 96 | 1017.9 |
| 20260906070704 | 65 | 203 | 1.0 | 3.0 | 0.00 | 0.00 | 0.00 | 96 | 1017.9 |
| 20260906065942 | 65 | 269 | 1.0 | 2.0 | 0.00 | 0.00 | 0.00 | 96 | 1017.9 |
| 20260906065444 | 65 | 181 | 1.0 | 2.0 | 0.00 | 0.00 | 0.00 | 96 | 1018.0 |
| 20260906064943 | 66 | 303 | 1.0 | 2.0 | 0.00 | 0.00 | 0.00 | 96 | 1018.1 |
| 20260906064442 | 66 | 181 | 1.0 | 3.0 | 0.00 | 0.00 | 0.00 | 96 | 1018.0 |
| 20260906063940 | 65 | 296 | 1.0 | 3.0 | 0.00 | 0.00 | 0.00 | 97 | 1018.1 |
| 20260906063656 | 65 | 337 | 1.0 | 4.0 | 0.00 | 0.00 | 0.00 | 97 | 1018.2 |
| 20260906063534 | 65 | 319 | 1.0 | 4.0 | 0.00 | 0.00 | 0.00 | 97 | 1018.1 |
| 20260906062438 | 65 | 227 | 1.0 | 3.0 | 0.00 | 0.00 | 0.00 | 97 | 1018.1 |
| 20260906061936 | 65 | 207 | 1.0 | 3.0 | 0.00 | 0.00 | 0.00 | 97 | 1018.1 |
| 20260906061438 | 65 | 265 | 1.0 | 3.0 | 0.00 | 0.00 | 0.00 | 97 | 1018.1 |
| 20260906060936 | 65 | 307 | 1.0 | 4.0 | 0.00 | 0.00 | 0.00 | 97 | 1018.0 |
| 20260906060436 | 65 | 265 | 2.0 | 4.0 | 0.00 | 0.00 | 0.00 | 97 | 1018.1 |
| 20260906055937 | 65 | 211 | 1.0 | 4.0 | 0.00 | 0.00 | 0.00 | 97 | 1018.0 |
| 20260906055437 | 65 | 294 | 2.0 | 4.0 | 0.00 | 0.00 | 0.00 | 97 | 1017.9 |
| 20260906055129 | 65 | 226 | 2.0 | 4.0 | 0.00 | 0.00 | 0.00 | 97 | 1017.9 |
| 20260906055025 | 65 | 197 | 1.0 | 4.0 | 0.00 | 0.00 | 0.00 | 97 | 1017.9 |
| 20260906053934 | 65 | 317 | 2.0 | 4.0 | 0.00 | 0.00 | 0.00 | 97 | 1018.0 |
| 20260906053435 | 65 | 293 | 1.0 | 5.0 | 0.00 | 0.00 | 0.00 | 97 | 1018.0 |
| 20260906053201 | 65 | 300 | 1.0 | 5.0 | 0.00 | 0.00 | 0.00 | 97 | 1018.0 |
| 20260906052435 | 65 | 230 | 1.0 | 4.0 | 0.00 | 0.00 | 0.00 | 97 | 1018.0 |
| 20260906051935 | 65 | 261 | 1.0 | 3.0 | 0.00 | 0.00 | 0.00 | 97 | 1017.9 |
| 20260906051435 | 65 | 248 | 1.0 | 3.0 | 0.00 | 0.00 | 0.00 | 96 | 1017.9 |
| 20260906050935 | 65 | 202 | 1.0 | 2.0 | 0.00 | 0.00 | 0.00 | 96 | 1017.8 |
| 20260906050438 | 65 | 210 | 1.0 | 2.0 | 0.00 | 0.00 | 0.00 | 96 | 1017.8 |
| 20260906045935 | 66 | 219 | 1.0 | 2.0 | 0.00 | 0.00 | 0.00 | 96 | 1017.8 |
| 20260906045435 | 66 | 356 | 1.0 | 2.0 | 0.00 | 0.00 | 0.00 | 95 | 1017.8 |
| 20260906044935 | 66 | 267 | 1.0 | 2.0 | 0.00 | 0.00 | 0.00 | 95 | 1017.8 |
| 20260906044436 | 66 | 297 | 1.0 | 2.0 | 0.00 | 0.00 | 0.00 | 95 | 1017.8 |
| 20260906043935 | 67 | 320 | 1.0 | 3.0 | 0.00 | 0.00 | 0.00 | 95 | 1017.8 |
| 20260906043432 | 67 | 304 | 1.0 | 3.0 | 0.00 | 0.00 | 0.00 | 95 | 1017.7 |
| 20260906042934 | 67 | 310 | 1.0 | 3.0 | 0.00 | 0.00 | 0.00 | 94 | 1017.6 |
| 20260906042432 | 67 | 316 | 1.0 | 3.0 | 0.00 | 0.00 | 0.00 | 94 | 1017.5 |
| 20260906041933 | 67 | 64 | 1.0 | 2.0 | 0.00 | 0.00 | 0.00 | 94 | 1017.5 |
| 20260906041429 | 67 | 314 | 1.0 | 3.0 | 0.00 | 0.00 | 0.00 | 94 | 1017.4 |
| 20260906040929 | 67 | 92 | 1.0 | 3.0 | 0.00 | 0.00 | 0.00 | 94 | 1017.4 |
| 20260906040429 | 67 | 18 | 1.0 | 3.0 | 0.00 | 0.00 | 0.00 | 94 | 1017.3 |
| 20260906035929 | 67 | 69 | 2.0 | 4.0 | 0.00 | 0.00 | 0.00 | 93 | 1017.4 |
| 20260906035918 | 67 | 54 | 2.0 | 4.0 | 0.00 | 0.00 | 0.00 | 93 | 1017.5 |
| 20260906034930 | 67 | 349 | 1.0 | 4.0 | 0.00 | 0.00 | 0.00 | 93 | 1017.6 |
| 20260906034427 | 67 | 178 | 1.0 | 4.0 | 0.00 | 0.00 | 0.00 | 92 | 1017.6 |
| 20260906033926 | 67 | 313 | 1.0 | 2.0 | 0.00 | 0.00 | 0.00 | 92 | 1017.5 |
| 20260906033425 | 67 | 85 | 1.0 | 4.0 | 0.00 | 0.00 | 0.00 | 92 | 1017.6 |
| 20260906032922 | 67 | 43 | 1.0 | 4.0 | 0.00 | 0.00 | 0.00 | 91 | 1017.5 |
| 20260906032423 | 67 | 239 | 1.0 | 4.0 | 0.00 | 0.00 | 0.00 | 91 | 1017.5 |
| 20260906032143 | 67 | 102 | 2.0 | 4.0 | 0.00 | 0.00 | 0.00 | 90 | 1017.4 |
| 20260906031422 | 68 | 55 | 1.0 | 4.0 | 0.00 | 0.00 | 0.00 | 89 | 1017.5 |
| 20260906030921 | 68 | 30 | 1.0 | 4.0 | 0.00 | 0.00 | 0.00 | 89 | 1017.5 |
| 20260906030422 | 68 | 299 | 2.0 | 4.0 | 0.00 | 0.00 | 0.00 | 88 | 1017.5 |
| 20260906025921 | 68 | 349 | 2.0 | 4.0 | 0.00 | 0.00 | 0.00 | 87 | 1017.5 |
| 20260906025421 | 68 | 21 | 2.0 | 5.0 | 0.00 | 0.00 | 0.00 | 87 | 1017.5 |
| 20260906024920 | 68 | 337 | 2.0 | 6.0 | 0.00 | 0.00 | 0.00 | 86 | 1017.5 |
| 20260906024422 | 68 | 100 | 2.0 | 6.0 | 0.00 | 0.00 | 0.00 | 85 | 1017.3 |
| 20260906023922 | 69 | 63 | 3.0 | 7.0 | 0.00 | 0.00 | 0.00 | 85 | 1017.3 |
| 20260906023420 | 69 | 64 | 4.0 | 8.0 | 0.00 | 0.00 | 0.00 | 85 | 1017.3 |
| 20260906022921 | 69 | 50 | 5.0 | 8.0 | 0.00 | 0.00 | 0.00 | 86 | 1017.2 |
| 20260906022421 | 69 | 49 | 4.0 | 8.0 | 0.00 | 0.00 | 0.00 | 85 | 1017.2 |
| 20260906021920 | 69 | 61 | 5.0 | 8.0 | 0.00 | 0.00 | 0.00 | 85 | 1017.2 |
| 20260906021420 | 69 | 45 | 4.0 | 8.0 | 0.00 | 0.00 | 0.00 | 85 | 1017.2 |
| 20260906020920 | 69 | 64 | 4.0 | 8.0 | 0.00 | 0.00 | 0.00 | 85 | 1017.2 |
| 20260906020421 | 69 | 53 | 4.0 | 8.0 | 0.00 | 0.00 | 0.00 | 86 | 1017.2 |
| 20260906015920 | 69 | 55 | 3.0 | 8.0 | 0.00 | 0.00 | 0.00 | 86 | 1017.2 |
| 20260906015421 | 69 | 34 | 4.0 | 8.0 | 0.00 | 0.00 | 0.00 | 86 | 1017.2 |
| 20260906014922 | 69 | 23 | 3.0 | 8.0 | 0.00 | 0.00 | 0.00 | 86 | 1017.2 |
| 20260906014421 | 69 | 62 | 2.0 | 5.0 | 0.00 | 0.00 | 0.00 | 88 | 1017.2 |
| 20260906013916 | 70 | 343 | 2.0 | 5.0 | 0.00 | 0.00 | 0.00 | 88 | 1017.3 |
| 20260906013417 | 70 | 322 | 2.0 | 7.0 | 0.00 | 0.00 | 0.00 | 88 | 1017.3 |
| 20260906012916 | 70 | 61 | 2.0 | 7.0 | 0.00 | 0.00 | 0.00 | 88 | 1017.2 |
| 20260906012417 | 70 | 44 | 2.0 | 4.0 | 0.00 | 0.00 | 0.00 | 88 | 1017.2 |
| 20260906011917 | 70 | 32 | 2.0 | 7.0 | 0.00 | 0.00 | 0.00 | 88 | 1017.2 |
| 20260906011414 | 70 | 143 | 2.0 | 8.0 | 0.00 | 0.00 | 0.00 | 88 | 1017.2 |
| 20260906010916 | 70 | 356 | 2.0 | 8.0 | 0.00 | 0.00 | 0.00 | 87 | 1017.3 |
| 20260906010414 | 70 | 87 | 2.0 | 6.0 | 0.00 | 0.00 | 0.00 | 88 | 1017.3 |
| 20260906005917 | 70 | 53 | 2.0 | 8.0 | 0.00 | 0.00 | 0.00 | 88 | 1017.3 |
| 20260906005414 | 70 | 82 | 3.0 | 8.0 | 0.00 | 0.00 | 0.00 | 88 | 1017.2 |
| 20260906004915 | 70 | 151 | 2.0 | 8.0 | 0.00 | 0.00 | 0.00 | 88 | 1017.2 |
| 20260906004413 | 70 | 175 | 1.0 | 4.0 | 0.00 | 0.00 | 0.00 | 88 | 1017.1 |
| 20260906003912 | 70 | 39 | 2.0 | 5.0 | 0.00 | 0.00 | 0.00 | 88 | 1017.1 |
| 20260906003410 | 70 | 72 | 3.0 | 9.0 | 0.00 | 0.00 | 0.00 | 88 | 1017.1 |
| 20260906002911 | 71 | 57 | 3.0 | 9.0 | 0.00 | 0.00 | 0.00 | 88 | 1017.0 |
| 20260906002411 | 71 | 60 | 3.0 | 9.0 | 0.00 | 0.00 | 0.00 | 88 | 1017.0 |
| 20260906001910 | 71 | 49 | 4.0 | 9.0 | 0.00 | 0.00 | 0.00 | 87 | 1017.1 |
| 20260906001410 | 71 | 53 | 4.0 | 9.0 | 0.00 | 0.00 | 0.00 | 87 | 1017.2 |
| 20260906000911 | 71 | 53 | 5.0 | 9.0 | 0.00 | 0.00 | 0.00 | 87 | 1017.1 |
| 20260906000411 | 71 | 42 | 4.0 | 9.0 | 0.00 | 0.00 | 0.00 | 86 | 1017.1 |
| 20260905235911 | 71 | 74 | 3.0 | 9.0 | 0.00 | 0.00 | 0.00 | 86 | 1017.1 |
| 20260905235411 | 71 | 62 | 3.0 | 7.0 | 0.00 | 0.00 | 0.00 | 86 | 1017.1 |
| 20260905235139 | 71 | 12 | 4.0 | 8.0 | 0.00 | 0.00 | 0.00 | 87 | 1017.2 |
| 20260905234407 | 71 | 32 | 4.0 | 8.0 | 0.00 | 0.00 | 0.00 | 87 | 1017.1 |
| 20260905233906 | 71 | 18 | 3.0 | 9.0 | 0.00 | 0.00 | 0.00 | 87 | 1017.1 |
| 20260905233405 | 71 | 69 | 4.0 | 9.0 | 0.00 | 0.00 | 0.00 | 88 | 1017.2 |
| 20260905232905 | 71 | 71 | 4.0 | 9.0 | 0.00 | 0.00 | 0.00 | 88 | 1017.2 |
| 20260905232405 | 71 | 59 | 3.0 | 9.0 | 0.00 | 0.00 | 0.00 | 88 | 1017.2 |
| 20260905232130 | 71 | 109 | 3.0 | 6.0 | 0.00 | 0.00 | 0.00 | 88 | 1017.2 |
| 20260905231408 | 71 | 52 | 3.0 | 7.0 | 0.00 | 0.00 | 0.00 | 89 | 1017.2 |
| 20260905230905 | 71 | 97 | 3.0 | 8.0 | 0.00 | 0.00 | 0.00 | 88 | 1017.1 |
| 20260905230406 | 71 | 53 | 4.0 | 8.0 | 0.00 | 0.00 | 0.00 | 89 | 1017.1 |
| 20260905225906 | 71 | 53 | 4.0 | 8.0 | 0.00 | 0.00 | 0.00 | 89 | 1017.1 |
| 20260905225406 | 71 | 43 | 4.0 | 11.0 | 0.00 | 0.00 | 0.00 | 90 | 1017.1 |
| 20260905224905 | 71 | 60 | 5.0 | 11.0 | 0.00 | 0.00 | 0.00 | 89 | 1017.1 |
| 20260905224402 | 72 | 106 | 4.0 | 11.0 | 0.00 | 0.00 | 0.00 | 88 | 1017.2 |
| 20260905223900 | 72 | 352 | 4.0 | 8.0 | 0.00 | 0.00 | 0.00 | 87 | 1017.2 |
| 20260905223400 | 72 | 69 | 5.0 | 9.0 | 0.00 | 0.00 | 0.00 | 87 | 1017.1 |
| 20260905223125 | 72 | 50 | 4.0 | 9.0 | 0.00 | 0.00 | 0.00 | 86 | 1017.0 |
| 20260905222621 | 72 | 41 | 4.0 | 9.0 | 0.00 | 0.00 | 0.00 | 86 | 1017.0 |
| 20260905221900 | 72 | 75 | 5.0 | 9.0 | 0.00 | 0.00 | 0.00 | 87 | 1016.9 |
| 20260905221401 | 72 | 91 | 5.0 | 9.0 | 0.00 | 0.00 | 0.00 | 86 | 1016.8 |
| 20260905220900 | 72 | 47 | 6.0 | 9.0 | 0.00 | 0.00 | 0.00 | 86 | 1016.7 |
| 20260905220400 | 73 | 48 | 5.0 | 9.0 | 0.00 | 0.00 | 0.00 | 86 | 1016.6 |
| 20260905220124 | 73 | 76 | 4.0 | 11.0 | 0.00 | 0.00 | 0.00 | 84 | 1016.7 |
| 20260905215400 | 73 | 306 | 4.0 | 11.0 | 0.00 | 0.00 | 0.00 | 85 | 1016.6 |
| 20260905214901 | 73 | 53 | 5.0 | 11.0 | 0.00 | 0.00 | 0.00 | 86 | 1016.6 |
| 20260905214357 | 73 | 304 | 5.0 | 11.0 | 0.00 | 0.00 | 0.00 | 86 | 1016.5 |
| 20260905213855 | 73 | 71 | 5.0 | 10.0 | 0.00 | 0.00 | 0.00 | 86 | 1016.5 |
| 20260905213355 | 73 | 125 | 5.0 | 9.0 | 0.00 | 0.00 | 0.00 | 86 | 1016.5 |
| 20260905212855 | 73 | 358 | 4.0 | 9.0 | 0.00 | 0.00 | 0.00 | 86 | 1016.5 |
| 20260905212357 | 74 | 58 | 4.0 | 9.0 | 0.00 | 0.00 | 0.00 | 84 | 1016.4 |
| 20260905211855 | 74 | 50 | 4.0 | 9.0 | 0.00 | 0.00 | 0.00 | 85 | 1016.5 |
| 20260905211355 | 74 | 57 | 4.0 | 9.0 | 0.00 | 0.00 | 0.00 | 84 | 1016.5 |
| 20260905210855 | 74 | 0 | 5.0 | 11.0 | 0.00 | 0.00 | 0.00 | 84 | 1016.4 |
| 20260905210355 | 74 | 24 | 5.0 | 11.0 | 0.00 | 0.00 | 0.00 | 84 | 1016.3 |
| 20260905205855 | 75 | 66 | 5.0 | 11.0 | 0.00 | 0.00 | 0.00 | 83 | 1016.3 |
| 20260905205356 | 75 | 24 | 5.0 | 11.0 | 0.00 | 0.00 | 0.00 | 83 | 1016.4 |
| 20260905204852 | 76 | 39 | 5.0 | 11.0 | 0.00 | 0.00 | 0.00 | 81 | 1016.4 |
| 20260905204351 | 76 | 335 | 4.0 | 11.0 | 0.00 | 0.00 | 0.00 | 81 | 1016.4 |
| 20260905204110 | 77 | 52 | 4.0 | 9.0 | 0.00 | 0.00 | 0.00 | 79 | 1016.4 |
| 20260905203352 | 78 | 51 | 4.0 | 9.0 | 0.00 | 0.00 | 0.00 | 78 | 1016.3 |
| 20260905203112 | 77 | 58 | 4.0 | 9.0 | 0.00 | 0.00 | 0.00 | 78 | 1016.2 |
| 20260905202352 | 77 | 110 | 4.0 | 8.0 | 0.00 | 0.00 | 0.00 | 79 | 1016.2 |
| 20260905201852 | 77 | 45 | 4.0 | 8.0 | 0.00 | 0.00 | 0.00 | 79 | 1016.3 |
| 20260905201352 | 77 | 41 | 4.0 | 8.0 | 0.00 | 0.00 | 0.00 | 79 | 1016.3 |
| 20260905200852 | 76 | 272 | 4.0 | 8.0 | 0.00 | 0.00 | 0.00 | 81 | 1016.3 |
| 20260905200353 | 76 | 54 | 4.0 | 8.0 | 0.00 | 0.00 | 0.00 | 82 | 1016.2 |
| 20260905195851 | 77 | 30 | 4.0 | 8.0 | 0.00 | 0.00 | 0.00 | 81 | 1016.3 |
| 20260905195352 | 77 | 4 | 4.0 | 9.0 | 0.00 | 0.00 | 0.00 | 81 | 1016.3 |
| 20260905194852 | 77 | 20 | 3.0 | 9.0 | 0.00 | 0.00 | 0.00 | 80 | 1016.3 |
| 20260905194353 | 77 | 277 | 3.0 | 8.0 | 0.00 | 0.00 | 0.00 | 80 | 1016.4 |
| 20260905193853 | 77 | 23 | 3.0 | 9.0 | 0.00 | 0.00 | 0.00 | 81 | 1016.4 |
| 20260905193350 | 76 | 336 | 3.0 | 9.0 | 0.00 | 0.00 | 0.00 | 82 | 1016.3 |
| 20260905192850 | 76 | 99 | 5.0 | 11.0 | 0.00 | 0.00 | 0.00 | 82 | 1016.3 |
| 20260905192351 | 76 | 45 | 6.0 | 11.0 | 0.00 | 0.00 | 0.00 | 83 | 1016.3 |
| 20260905192119 | 76 | 60 | 6.0 | 11.0 | 0.00 | 0.00 | 0.00 | 82 | 1016.3 |
| 20260905191351 | 76 | 74 | 6.0 | 11.0 | 0.00 | 0.00 | 0.00 | 82 | 1016.3 |
| 20260905191339 | 77 | 90 | 6.0 | 11.0 | 0.00 | 0.00 | 0.00 | 82 | 1016.3 |
| 20260905190352 | 77 | 53 | 6.0 | 11.0 | 0.00 | 0.00 | 0.00 | 83 | 1016.3 |
| 20260905185852 | 76 | 67 | 6.0 | 11.0 | 0.00 | 0.00 | 0.00 | 84 | 1016.3 |
| 20260905185351 | 77 | 55 | 6.0 | 11.0 | 0.00 | 0.00 | 0.00 | 84 | 1016.3 |
| 20260905184847 | 78 | 52 | 5.0 | 11.0 | 0.00 | 0.00 | 0.00 | 83 | 1016.2 |
| 20260905184349 | 78 | 59 | 4.0 | 8.0 | 0.00 | 0.00 | 0.00 | 81 | 1016.2 |
| 20260905183847 | 79 | 340 | 3.0 | 7.0 | 0.00 | 0.00 | 0.00 | 78 | 1016.2 |
| 20260905183605 | 79 | 317 | 2.0 | 7.0 | 0.00 | 0.00 | 0.00 | 78 | 1016.2 |
| 20260905182842 | 78 | 330 | 4.0 | 8.0 | 0.00 | 0.00 | 0.00 | 79 | 1016.2 |
| 20260905182343 | 79 | 322 | 4.0 | 8.0 | 0.00 | 0.00 | 0.00 | 79 | 1016.2 |
| 20260905181843 | 79 | 324 | 3.0 | 8.0 | 0.00 | 0.00 | 0.00 | 78 | 1016.2 |
| 20260905181342 | 79 | 357 | 3.0 | 9.0 | 0.00 | 0.00 | 0.00 | 78 | 1016.2 |
| 20260905180841 | 79 | 334 | 4.0 | 9.0 | 0.00 | 0.00 | 0.00 | 78 | 1016.2 |
| 20260905180342 | 78 | 16 | 3.0 | 7.0 | 0.00 | 0.00 | 0.00 | 78 | 1016.2 |
| 20260905175842 | 78 | 74 | 2.0 | 6.0 | 0.00 | 0.00 | 0.00 | 78 | 1016.3 |
| 20260905175343 | 78 | 23 | 3.0 | 9.0 | 0.00 | 0.00 | 0.00 | 79 | 1016.2 |
| 20260905174843 | 78 | 319 | 4.0 | 9.0 | 0.00 | 0.00 | 0.00 | 79 | 1016.1 |
| 20260905174343 | 78 | 284 | 4.0 | 10.0 | 0.00 | 0.00 | 0.00 | 79 | 1016.1 |
| 20260905173841 | 78 | 298 | 4.0 | 10.0 | 0.00 | 0.00 | 0.00 | 79 | 1016.2 |
| 20260905173604 | 78 | 25 | 4.0 | 7.0 | 0.00 | 0.00 | 0.00 | 78 | 1016.3 |
| 20260905172841 | 78 | 76 | 4.0 | 9.0 | 0.00 | 0.00 | 0.00 | 78 | 1016.3 |
| 20260905172829 | 79 | 45 | 3.0 | 9.0 | 0.00 | 0.00 | 0.00 | 78 | 1016.3 |
| 20260905171841 | 79 | 63 | 4.0 | 9.0 | 0.00 | 0.00 | 0.00 | 78 | 1016.2 |
| 20260905171341 | 79 | 23 | 3.0 | 9.0 | 0.00 | 0.00 | 0.00 | 78 | 1016.2 |
| 20260905170842 | 78 | 58 | 3.0 | 7.0 | 0.00 | 0.00 | 0.00 | 78 | 1016.2 |
| 20260905170342 | 78 | 356 | 3.0 | 7.0 | 0.00 | 0.00 | 0.00 | 78 | 1016.3 |
| 20260905165841 | 78 | 330 | 3.0 | 8.0 | 0.00 | 0.00 | 0.00 | 79 | 1016.3 |
| 20260905165601 | 78 | 25 | 3.0 | 9.0 | 0.00 | 0.00 | 0.00 | 80 | 1016.3 |
| 20260905164842 | 78 | 294 | 3.0 | 9.0 | 0.00 | 0.00 | 0.00 | 79 | 1016.3 |
| 20260905164338 | 78 | 298 | 3.0 | 6.0 | 0.00 | 0.00 | 0.00 | 78 | 1016.4 |
| 20260905163838 | 77 | 31 | 3.0 | 7.0 | 0.00 | 0.00 | 0.00 | 81 | 1016.4 |
| 20260905163337 | 77 | 64 | 3.0 | 7.0 | 0.00 | 0.00 | 0.00 | 81 | 1016.3 |
| 20260905163057 | 77 | 25 | 3.0 | 6.0 | 0.00 | 0.00 | 0.00 | 82 | 1016.3 |
| 20260905162336 | 77 | 50 | 2.0 | 6.0 | 0.00 | 0.00 | 0.00 | 82 | 1016.3 |
| 20260905162054 | 77 | 10 | 3.0 | 7.0 | 0.00 | 0.00 | 0.00 | 82 | 1016.4 |
| 20260905161336 | 76 | 45 | 4.0 | 7.0 | 0.00 | 0.00 | 0.00 | 83 | 1016.4 |
| 20260905160836 | 76 | 69 | 3.0 | 7.0 | 0.00 | 0.00 | 0.00 | 83 | 1016.4 |
| 20260905160336 | 76 | 25 | 2.0 | 6.0 | 0.00 | 0.00 | 0.00 | 83 | 1016.4 |
| 20260905155836 | 76 | 356 | 2.0 | 5.0 | 0.00 | 0.00 | 0.00 | 84 | 1016.4 |
| 20260905155604 | 76 | 70 | 2.0 | 6.0 | 0.00 | 0.00 | 0.00 | 85 | 1016.4 |
| 20260905155101 | 76 | 44 | 3.0 | 6.0 | 0.00 | 0.00 | 0.00 | 85 | 1016.3 |
| 20260905154337 | 75 | 37 | 3.0 | 6.0 | 0.00 | 0.00 | 0.00 | 85 | 1016.3 |
| 20260905153834 | 75 | 349 | 3.0 | 6.0 | 0.00 | 0.00 | 0.00 | 86 | 1016.4 |
| 20260905153332 | 75 | 337 | 3.0 | 6.0 | 0.00 | 0.00 | 0.00 | 86 | 1016.4 |
| 20260905153317 | 75 | 81 | 2.0 | 6.0 | 0.00 | 0.00 | 0.00 | 87 | 1016.4 |
| 20260905152332 | 75 | 52 | 2.0 | 6.0 | 0.00 | 0.00 | 0.00 | 87 | 1016.4 |
| 20260905151832 | 74 | 188 | 3.0 | 8.0 | 0.00 | 0.00 | 0.00 | 88 | 1016.3 |
| 20260905151334 | 74 | 0 | 4.0 | 9.0 | 0.00 | 0.00 | 0.00 | 88 | 1016.3 |
| 20260905150831 | 74 | 64 | 4.0 | 9.0 | 0.00 | 0.00 | 0.00 | 89 | 1016.2 |
| 20260905150331 | 75 | 33 | 4.0 | 9.0 | 0.00 | 0.00 | 0.00 | 87 | 1016.3 |
| 20260905145831 | 75 | 65 | 4.0 | 8.0 | 0.00 | 0.00 | 0.00 | 88 | 1016.1 |
| 20260905145556 | 75 | 306 | 3.0 | 7.0 | 0.00 | 0.00 | 0.00 | 87 | 1016.1 |
| 20260905144831 | 75 | 350 | 4.0 | 8.0 | 0.00 | 0.00 | 0.00 | 87 | 1015.9 |
| 20260905144821 | 75 | 140 | 4.0 | 11.0 | 0.00 | 0.00 | 0.00 | 86 | 1015.9 |
| 20260905143834 | 75 | 288 | 4.0 | 11.0 | 0.00 | 0.00 | 0.00 | 87 | 1015.8 |
| 20260905143553 | 75 | 352 | 3.0 | 8.0 | 0.00 | 0.00 | 0.00 | 87 | 1015.6 |
| 20260905142829 | 74 | 288 | 3.0 | 8.0 | 0.00 | 0.00 | 0.00 | 88 | 1015.5 |
| 20260905142551 | 74 | 47 | 4.0 | 9.0 | 0.00 | 0.00 | 0.00 | 90 | 1015.5 |
| 20260905141823 | 73 | 72 | 4.0 | 9.0 | 0.00 | 0.00 | 0.00 | 91 | 1015.5 |
| 20260905141322 | 73 | 61 | 4.0 | 7.0 | 0.00 | 0.00 | 0.00 | 92 | 1015.5 |
| 20260905140823 | 73 | 85 | 2.0 | 6.0 | 0.00 | 0.00 | 0.00 | 93 | 1015.5 |
| 20260905140320 | 73 | 40 | 3.0 | 8.0 | 0.00 | 0.00 | 0.00 | 93 | 1015.5 |
| 20260905135811 | 73 | 37 | 4.0 | 8.0 | 0.00 | 0.00 | 0.00 | 94 | 1015.5 |
| 20260905135311 | 73 | 55 | 4.0 | 8.0 | 0.00 | 0.00 | 0.00 | 94 | 1015.2 |
| 20260905134814 | 73 | 61 | 5.0 | 9.0 | 0.00 | 0.00 | 0.00 | 94 | 1015.4 |
| 20260905134312 | 72 | 101 | 4.0 | 9.0 | 0.00 | 0.00 | 0.00 | 94 | 1015.4 |
| 20260905134036 | 72 | 71 | 3.0 | 8.0 | 0.00 | 0.00 | 0.00 | 95 | 1015.4 |
| 20260905133305 | 72 | 48 | 4.0 | 8.0 | 0.00 | 0.00 | 0.00 | 95 | 1015.4 |
| 20260905132808 | 72 | 67 | 4.0 | 8.0 | 0.00 | 0.00 | 0.00 | 95 | 1015.5 |
| 20260905132307 | 72 | 68 | 3.0 | 8.0 | 0.00 | 0.00 | 0.00 | 95 | 1015.4 |
| 20260905131810 | 72 | 14 | 3.0 | 6.0 | 0.00 | 0.00 | 0.00 | 95 | 1015.7 |
| 20260905131308 | 72 | 312 | 3.0 | 8.0 | 0.00 | 0.00 | 0.00 | 95 | 1015.6 |
| 20260905130808 | 72 | 57 | 4.0 | 8.0 | 0.00 | 0.00 | 0.00 | 95 | 1015.4 |
| 20260905130308 | 72 | 20 | 4.0 | 7.0 | 0.00 | 0.00 | 0.00 | 96 | 1015.3 |
| 20260905125808 | 72 | 39 | 3.0 | 6.0 | 0.00 | 0.00 | 0.00 | 96 | 1015.1 |
| 20260905125256 | 72 | 35 | 3.0 | 6.0 | 0.00 | 0.00 | 0.00 | 97 | 1015.2 |
| 20260905124755 | 71 | 95 | 4.0 | 8.0 | 0.00 | 0.00 | 0.00 | 97 | 1015.1 |